SCP
0 0 0 0 0 0 0 0 0 0 0 0 0 0 0 -0 -0 0 0 0 -0 -0 0 0 0 0 0 0 0 0 0 0 0 0 0 0 0 0 0 0 0 0 0 0 0 0 0
0 0 0 0 0 0 0 0 0 0 0 0 0 0 0 0 -0 -0 0 0 -0 -0 0 0 0 0 0 0 0 0 0 0 0 0 0 0 0 0 0 0 0 0 0 0 0 0 0
0 0 0 0 0 0 0 0 0 0 0 0 0 0 0 0 0 0 -0 -0 0 0 0 0 0 0 0 0 0 0 0 0 0 0 0 0 0 0 0 0 0 0 0 0 0 0 0
0 0 0 0 0 0 0 0 0 0 0 0 0 0 0 0 0 0 0 0 0 0 0 0 0 0 0 0 0 0 0 0 0 0 0 0 0 0 0 0 0 0 0 0 0 0 0
0 0 0 0 0 0 0 0 0 0 0 0 0 0 0 0 0 0 0 0 -0 0 0 0 0 0 0 0 0 0 0 0 0 0 0 0 0 0 0 0 0 0 0 0 0 0 0
0 0 0 0 0 0 0 0 0 0 0 0 0 0 0 0 0 0 0 0 0 0 0 0 0 0 0 0 0 0 0 0 0 0 0 0 0 0 0 0 0 0 0 0 0 0 0
0 0 0 0 0 0 0 0 0 0 0 0 0 0 0 0 0 -0 -0 0 0 0 0 0 0 0 0 0 0 0 0 0 0 0 0 0 0 0 0 0 0 0 0 0 0 0 0
0 0 0 0 0 0 0 0 0 0 0 0 0 0 0 0 0 -0 0 0 0 0 0 0 0 0 0 0 0 0 0 0 0 0 0 0 0 0 0 0 0 0 0 0 0 0 0
0 0 0 0 0 0 0 0 0 0 0 0 0 0 0 0 -0 0 0 0 0 0 0 0 0 0 0 0 0 0 0 0 0 0 0 0 0 0 0 0 0 0 0 0 0 0 0
0 0 0 0 0 0 0 0 0 0 0 0 0 0 0 0 -0 0 0 0 0 0 -0 0 0 0 0 0 0 0 0 0 0 0 0 0 0 0 0 0 0 0 0 0 0 0 0
0 0 0 0 0 0 0 0 0 0 0 0 0 0 0 0 0 0 0 0 0 0 -0 0 0 0 0 0 0 0 0 0 0 0 0 0 0 0 0 0 0 0 0 0 0 0 0
0 0 0 0 0 0 0 0 0 0 0 0 0 0 0 0 0 0 0 0 0 0 0 0 0 0 0 0 0 0 0 0 0 0 0 0 0 0 0 0 0 0 0 0 0 0 0
0 0 0 0 0 0 0 0 0 0 0 0 0 0 0 0 0 0 0 0 0 0 0 0 0 0 0 0 0 0 0 0 0 0 0 0 0 0 0 0 0 0 0 0 0 0 0
0 0 0 0 0 0 0 0 0 0 0 0 0 0 0 0 0 0 0 0 0 0 0 0 0 0 0 0 0 0 0 0 0 0 0 0 0 0 0 0 0 0 0 0 0 0 0
0 0 0 0 0 0 0 0 0 0 0 0 0 0 0 0 0 0 0 0 0 0 0 0 0 0 0 0 0 0 0 0 0 0 0 0 0 0 0 0 0 0 0 0 0 0 0
0 0 0 0 0 0 0 0 0 0 0 0 0 0 0 0 0 0 0 0 0 0 0 0 0 0 0 0 0 0 0 0 -0 -0 -0 0 0 0 0 0 0 0 0 0 0 0 0
0 0 0 0 0 0 0 0 0 0 -0 0 0 0 0 0 0 0 0 0 0 0 0 0 0 0 0 0 0 0 0 0 -0 0 0 0 0 0 0 0 0 0 0 0 0 0 0
0 0 0 0 0 0 0 0 0 -0 -0 0 0 0 0 0 0 0 0 0 0 0 0 0 0 0 0 0 0 0 0 0 -0 -0 -0 -0 -0 -0 0 0 0 0 0 0 0 0 0
0 0 0 0 0 0 0 0 0 0 0 0 0 0 0 0 0 0 0 0 0 0 0 0 0 0 0 0 0 0 0 -0 0 0 -0 -0 -0 -0 -0 -0 -0 0 0 0 -0 -0 -0
0 0 0 0 0 0 0 0 0 0 0 0 0 0 -0 0 0 0 0 0 0 0 0 0 0 0 0 0 0 0 0 -0 -0 0 0 0 -0 -0 -0 -0 -0 -0 -0 0 -0 0 0
0 0 0 0 0 0 0 0 0 -0 -0 0 0 0 -0 -0 0 0 0 0 0 0 0 0 0 0 0 0 0 0 0 0 0 -0 0 -0 -0 -0 -0 0 0 -0 -0 -0 -0 -0 -0
0 0 0 0 0 0 0 -0 -0 -0 -0 0 -0 0 0 -0 -0 0 0 0 0 0 0 0 0 0 0 -0 -0 -0 -0 -0 -0 0 0 0 0 -0 -0 -0 -0 0 -0 -0 -0 -0 -0
0 0 0 0 0 0 0 0 0 0 0 0 -0 0 0 -0 -0 0 0 0 0 0 0 0 0 0 0 -0 0 0 0 0 0 0 0 0 0 -0 0 -0 -0 -0 0 -0 0 0 -0
0 0 0 0 0 0 0 0 0 0 0 0 0 0 0 -0 0 -0 0 0 0 0 0 0 0 0 0 0 0 0 0 0 0 0 0 0 0 -0 -0 -0 -0 0 0 0 0 0 -0
0 0 0 0 0 0 0 0 0 0 0 0 0 0 0 0 0 -0 0 0 0 0 0 0 0 0 0 0 0 0 0 0 0 0 0 0 0 0 0 0 -0 0 0 0 0 0 0
0 0 0 0 0 0 0 0 0 0 0 0 0 0 0 0 0 0 0 0 0 0 0 0 0 0 0 0 0 0 0 0 0 0 0 0 0 0 0 0 0 0 0 -0 -0 0 0
0 0 0 0 0 0 0 0 0 0 0 0 0 0 0 0 0 0 0 0 0 0 0 0 0 0 0 0 0 0 0 0 0 0 0 0 0 0 0 0 0 0 0 0 0 0 0
0 0 0 0 0 0 0 0 0 0 0 0 0 0 0 0 0 0 0 0 0 0 0 0 0 0 0 0 0 0 0 0 0 0 0 0 0 0 0 0 0 0 0 0 0 0 -0
0 0 0 0 0 0 0 0 0 0 0 0 0 0 0 0 0 0 0 0 0 0 0 0 0 0 0 0 0 0 0 0 0 0 0 0 0 0 0 0 0 0 0 -0 0 0 0
Wind_Speed_500mb
44 44 45 46 50 55 51 47 53 71 72 68 72 72 75 59 41 34 36 40 42 43 41 41 44 40 47 34 14 16 20 29 34 34 34 34 35 16 9 12 9 11 6 15 14 16 17
46 48 46 47 48 58 50 46 52 67 77 71 69 72 70 69 38 40 41 42 47 47 48 50 50 45 51 33 14 22 27 33 31 31 30 34 17 27 22 11 12 10 20 13 16 13 13
47 45 49 49 47 49 54 44 51 60 72 79 62 64 69 87 86 66 56 57 56 52 50 56 52 53 64 18 27 30 33 35 31 29 33 25 30 5 15 13 15 11 9 6 19 12 8
48 46 46 49 46 37 41 41 44 53 62 67 64 49 62 63 67 73 68 73 58 50 55 60 62 68 33 25 32 41 40 37 29 30 33 31 22 33 12 28 12 10 9 6 8 14 8
49 46 45 44 44 42 37 37 41 44 53 57 62 67 42 53 64 62 63 66 74 66 64 47 59 50 11 21 33 40 42 42 37 37 33 25 23 18 10 10 9 12 6 3 2 9 6
51 48 47 44 42 42 41 42 43 44 43 43 52 66 71 29 43 60 54 54 49 57 55 58 47 25 15 21 28 32 36 35 33 33 18 14 15 9 9 8 8 9 9 2 0 9 7
54 52 49 47 43 41 42 42 41 42 41 34 26 39 55 62 34 56 57 32 17 38 64 38 36 27 30 39 29 25 30 30 22 20 11 17 19 7 3 5 7 11 8 6 3 3 7
50 55 54 50 48 44 42 43 43 41 39 35 26 21 30 41 34 32 18 31 23 19 30 51 47 43 31 20 27 26 17 11 13 9 5 13 10 2 2 11 13 10 8 4 5 5 5
47 50 54 55 52 48 45 42 41 41 40 38 29 20 21 33 44 53 56 47 28 18 14 32 36 39 22 32 21 27 16 15 16 14 12 12 5 3 5 9 10 7 9 3 1 9 3
45 49 51 53 54 54 49 43 38 34 35 36 34 25 19 18 20 26 14 9 4 10 11 25 24 22 22 6 14 29 16 8 12 9 8 11 5 6 8 8 3 6 3 4 4 7 5
41 46 50 53 54 53 52 50 42 32 25 30 32 27 20 14 12 13 15 8 4 2 11 14 16 13 21 15 4 21 20 16 10 7 4 3 3 6 10 3 3 5 4 5 4 6 6
40 44 47 53 55 55 53 51 50 42 22 19 28 28 20 9 10 9 9 12 6 11 3 13 11 15 11 22 10 8 12 21 10 12 13 5 3 6 3 5 7 8 7 10 7 4 4
40 46 51 53 54 54 53 53 52 46 29 16 15 27 23 16 6 6 2 9 10 13 6 11 6 10 5 12 12 13 10 10 6 9 7 9 5 4 2 7 3 6 7 6 9 7 8
40 46 52 57 57 54 53 51 50 48 43 22 14 13 24 19 11 5 2 9 18 8 6 6 3 4 10 14 10 13 5 6 8 9 7 8 8 3 1 1 8 4 6 8 9 4 9
39 44 48 55 59 56 54 50 50 50 47 30 15 11 27 22 15 4 4 13 12 11 6 9 4 10 9 4 6 10 11 3 4 4 6 6 4 3 2 2 3 4 2 6 11 3 5
38 43 47 51 56 59 56 54 51 50 50 34 14 6 27 25 18 9 12 9 4 5 4 4 5 2 3 4 6 7 4 2 3 4 4 2 3 4 2 5 9 3 9 6 4 3 9
38 43 47 52 53 57 58 58 57 53 52 38 10 2 26 24 13 19 9 4 5 4 5 5 5 4 3 3 3 5 4 4 6 5 8 5 7 7 5 8 11 7 2 4 3 6 5
41 42 47 51 52 52 56 58 60 60 56 39 9 6 25 18 11 10 5 8 7 5 4 6 5 2 8 5 4 1 4 7 12 10 6 2 7 6 16 2 4 6 10 9 6 8 6
38 39 41 45 49 50 53 55 58 58 59 44 10 10 19 14 7 5 3 5 2 6 4 3 4 6 2 4 2 5 5 3 14 9 9 9 1 5 9 5 5 7 8 7 4 4 15
38 36 39 41 44 48 47 51 53 53 53 39 12 7 15 17 15 11 8 2 6 4 5 6 5 3 4 5 5 3 5 3 12 9 8 11 6 11 11 7 6 8 10 13 12 7 7
40 42 42 42 44 46 45 45 46 47 46 30 17 6 7 7 12 7 4 8 5 4 4 9 3 8 8 7 7 9 8 4 5 11 10 10 9 8 11 18 13 27 27 20 31 35 19
43 45 45 43 41 44 42 38 41 41 37 21 10 7 7 5 5 3 7 7 10 3 10 6 6 4 10 10 14 14 11 7 11 4 11 2 5 5 10 10 11 17 31 37 41 40 41
46 48 49 48 43 36 40 30 30 33 33 14 13 11 6 7 5 2 2 4 4 3 7 7 11 7 6 21 34 23 20 9 11 16 14 10 8 2 10 6 16 18 15 27 15 13 39
46 47 48 49 43 24 23 24 23 21 20 17 12 7 5 4 2 4 4 3 4 6 4 2 14 7 3 2 6 8 13 17 17 20 18 12 9 4 8 12 6 10 7 15 26 18 36
49 49 46 43 35 20 18 16 19 15 14 9 9 6 3 2 5 10 6 7 10 9 7 10 13 11 4 1 5 9 7 5 1 4 9 5 9 3 5 5 18 11 3 8 11 12 28
49 46 41 37 25 17 18 15 16 11 12 9 3 4 2 3 8 6 3 4 4 2 7 5 7 7 12 6 4 5 8 6 5 1 13 6 4 12 3 4 12 8 2 6 2 10 7
48 43 36 27 19 21 16 13 15 11 11 11 8 8 6 5 8 9 6 3 4 1 4 6 2 4 12 4 5 8 8 6 7 10 9 7 6 23 20 12 18 18 22 2 3 9 3
40 36 28 19 13 16 17 17 13 14 15 11 12 12 14 11 19 31 24 19 11 6 3 1 4 3 4 6 7 8 8 8 4 8 12 16 15 10 12 10 21 24 13 15 8 5 10
33 28 23 17 11 16 20 18 12 13 15 16 16 18 18 17 17 38 51 48 43 38 25 12 7 5 10 3 4 1 6 3 8 7 1 7 15 11 20 17 12 22 25 26 30 38 55
Wind_Direction_500mb
20 19 18 18 22 19 20 39 30 25 22 24 32 29 38 78 37 99 112 121 123 123 121 128 129 134 159 95 14 87 115 132 135 143 147 153 144 105 89 97 77 76 116 74 85 79 63
26 22 21 18 29 29 30 43 35 29 33 32 33 34 42 40 74 102 113 123 117 117 119 127 127 138 118 77 58 100 115 129 124 133 148 151 137 117 90 66 62 95 104 101 63 54 48
26 25 25 27 33 35 39 51 35 26 30 35 33 36 45 56 93 103 110 113 113 115 119 123 111 113 95 69 84 103 118 126 115 129 145 141 132 123 107 95 107 101 74 71 28 16 31
24 24 23 27 30 33 29 31 30 21 19 25 34 35 41 64 69 99 104 110 101 126 125 123 115 105 82 81 92 104 114 122 114 127 125 109 117 107 77 114 53 59 48 84 353 1 17
25 23 21 21 26 27 25 13 9 15 21 25 40 42 59 62 76 90 97 99 94 99 110 106 113 95 61 97 97 104 114 114 112 107 100 106 111 79 75 78 47 14 138 109 87 28 351
27 25 23 17 18 19 18 21 18 20 25 38 55 57 54 63 90 89 99 91 87 92 90 87 95 78 65 69 91 99 111 117 117 111 91 74 67 70 33 63 176 168 120 67 220 340 358
23 27 25 24 17 17 13 8 12 15 22 31 51 66 53 51 109 110 110 107 85 64 69 86 103 101 95 81 83 102 116 123 106 73 52 32 70 85 53 23 115 119 98 105 324 6 328
25 24 26 24 23 20 19 12 13 19 23 27 35 47 56 69 89 112 118 95 89 116 77 62 70 73 70 83 82 73 105 84 64 72 28 38 71 264 250 74 82 68 91 32 299 356 353
26 25 23 23 24 21 21 19 15 19 24 28 36 46 70 84 95 110 101 101 103 86 86 41 38 40 38 70 51 33 70 81 75 55 37 98 174 330 101 55 80 43 110 119 237 324 55
27 26 24 22 20 21 20 19 16 13 20 29 34 51 62 120 111 122 116 113 77 55 77 343 355 24 3 63 52 36 51 80 47 117 89 84 335 109 83 76 78 105 168 104 50 38 265
25 25 22 21 20 17 15 16 15 10 12 24 32 38 58 77 121 128 137 144 236 317 70 308 326 3 22 68 88 19 37 66 80 78 102 255 56 74 72 81 12 126 73 70 73 81 20
17 20 19 19 17 16 11 10 12 12 14 20 25 27 30 68 75 100 132 135 126 45 15 338 332 358 10 25 34 41 55 72 102 70 36 78 46 49 96 70 63 129 78 46 55 56 358
11 13 12 16 16 14 12 7 8 10 6 5 16 24 19 31 51 25 97 144 44 79 308 310 356 5 53 6 20 27 22 26 87 87 17 10 353 330 108 88 62 85 61 342 352 13 234
9 9 7 11 13 15 12 8 7 5 2 358 354 17 20 19 24 42 80 62 68 214 213 291 345 41 75 11 20 4 47 46 37 64 95 131 322 173 268 109 158 81 130 151 220 256 288
4 5 7 7 8 14 11 10 4 2 1 353 347 357 11 13 8 46 148 51 172 208 174 148 97 69 25 31 98 42 24 28 346 31 100 128 299 345 42 80 86 160 131 147 105 170 291
357 359 2 7 6 10 10 10 9 3 356 354 347 349 4 9 17 31 73 115 104 184 136 39 101 152 130 318 69 62 25 246 24 79 68 101 72 354 43 60 41 142 150 81 19 221 266
352 353 356 2 8 7 10 9 9 7 358 357 2 37 3 5 30 50 93 129 137 98 51 61 143 104 103 133 106 140 185 266 173 120 91 117 101 317 22 210 183 149 206 96 141 169 210
344 348 353 357 3 7 7 8 8 4 3 7 16 41 360 9 43 46 64 125 133 159 124 101 103 109 162 147 101 333 230 232 174 151 118 142 135 212 214 298 179 180 195 169 153 208 228
336 342 349 352 356 5 4 5 7 7 5 2 16 5 3 15 92 49 130 87 101 133 179 138 151 176 122 150 82 190 209 346 177 148 160 178 4 344 343 19 15 242 201 184 111 95 204
329 335 340 347 350 356 0 359 6 7 6 3 9 18 22 51 65 113 125 142 139 162 147 165 164 136 132 169 213 202 230 176 183 180 172 154 169 193 199 202 152 224 209 200 182 196 194
325 328 332 336 340 346 355 353 1 10 9 8 25 55 28 339 14 70 83 154 128 195 219 190 174 209 177 176 184 213 201 179 196 194 154 151 225 186 249 246 236 251 249 205 212 223 215
320 323 324 326 332 334 347 351 352 6 12 24 34 25 12 29 346 58 3 212 176 176 155 247 222 183 191 194 194 204 165 202 201 167 164 216 257 173 276 258 223 255 240 230 229 231 250
315 318 320 319 323 326 337 346 349 357 10 36 30 12 6 7 3 16 260 169 239 194 213 199 194 154 214 243 241 236 211 225 202 164 187 164 164 97 268 322 300 280 234 214 209 214 224
305 309 311 312 315 318 326 336 339 349 1 16 32 33 53 305 41 260 357 261 239 206 255 272 202 171 283 220 315 279 258 252 220 215 174 150 148 175 277 339 284 263 207 198 201 230 218
300 304 307 308 306 306 315 320 329 338 349 353 14 32 98 230 237 297 267 239 289 285 248 242 237 224 233 299 17 339 327 329 4 20 196 168 147 251 247 244 294 292 199 145 174 275 216
295 298 300 302 294 281 298 302 308 322 332 323 336 4 290 132 239 232 251 233 247 249 323 243 266 247 187 115 122 224 246 252 257 65 30 108 114 204 139 225 249 247 198 178 149 292 229
289 292 297 297 288 268 279 291 292 288 303 296 270 272 238 231 268 222 222 248 260 220 247 291 234 175 190 124 176 200 239 189 241 185 154 161 208 224 223 256 279 243 205 34 16 247 200
277 283 286 283 268 263 266 286 279 269 274 298 281 272 249 223 255 267 262 238 237 227 228 221 320 232 80 184 192 218 199 224 245 171 178 176 171 195 196 233 268 178 112 167 228 286 275
265 270 277 273 240 256 277 285 263 260 276 287 286 287 280 262 266 281 274 274 262 252 262 221 245 164 228 187 250 306 242 216 200 241 328 226 197 184 194 213 271 216 246 233 269 277 290
Wind_Speed_850mb
44 44 45 46 50 55 51 47 53 71 72 68 72 72 75 59 41 34 36 40 42 43 41 41 44 40 47 34 14 16 20 29 34 34 34 34 35 16 9 12 9 11 6 15 14 16 17
46 48 46 47 48 58 50 46 52 67 77 71 69 72 70 69 38 40 41 42 47 47 48 50 50 45 51 33 14 22 27 33 31 31 30 34 17 27 22 11 12 10 20 13 16 13 13
47 45 49 49 47 49 54 44 51 60 72 79 62 64 69 87 86 66 56 57 56 52 50 56 52 53 64 18 27 30 33 35 31 29 33 25 30 5 15 13 15 11 9 6 19 12 8
48 46 46 49 46 37 41 41 44 53 62 67 64 49 62 63 67 73 68 73 58 50 55 60 62 68 33 25 32 41 40 37 29 30 33 31 22 33 12 28 12 10 9 6 8 14 8
49 46 45 44 44 42 37 37 41 44 53 57 62 67 42 53 64 62 63 66 74 66 64 47 59 50 11 21 33 40 42 42 37 37 33 25 23 18 10 10 9 12 6 3 2 9 6
51 48 47 44 42 42 41 42 43 44 43 43 52 66 71 29 43 60 54 54 49 57 55 58 47 25 15 21 28 32 36 35 33 33 18 14 15 9 9 8 8 9 9 2 0 9 7
54 52 49 47 43 41 42 42 41 42 41 34 26 39 55 62 34 56 57 32 17 38 64 38 36 27 30 39 29 25 30 30 22 20 11 17 19 7 3 5 7 11 8 6 3 3 7
50 55 54 50 48 44 42 43 43 41 39 35 26 21 30 41 34 32 18 31 23 19 30 51 47 43 31 20 27 26 17 11 13 9 5 13 10 2 2 11 13 10 8 4 5 5 5
47 50 54 55 52 48 45 42 41 41 40 38 29 20 21 33 44 53 56 47 28 18 14 32 36 39 22 32 21 27 16 15 16 14 12 12 5 3 5 9 10 7 9 3 1 9 3
45 49 51 53 54 54 49 43 38 34 35 36 34 25 19 18 20 26 14 9 4 10 11 25 24 22 22 6 14 29 16 8 12 9 8 11 5 6 8 8 3 6 3 4 4 7 5
41 46 50 53 54 53 52 50 42 32 25 30 32 27 20 14 12 13 15 8 4 2 11 14 16 13 21 15 4 21 20 16 10 7 4 3 3 6 10 3 3 5 4 5 4 6 6
40 44 47 53 55 55 53 51 50 42 22 19 28 28 20 9 10 9 9 12 6 11 3 13 11 15 11 22 10 8 12 21 10 12 13 5 3 6 3 5 7 8 7 10 7 4 4
40 46 51 53 54 54 53 53 52 46 29 16 15 27 23 16 6 6 2 9 10 13 6 11 6 10 5 12 12 13 10 10 6 9 7 9 5 4 2 7 3 6 7 6 9 7 8
40 46 52 57 57 54 53 51 50 48 43 22 14 13 24 19 11 5 2 9 18 8 6 6 3 4 10 14 10 13 5 6 8 9 7 8 8 3 1 1 8 4 6 8 9 4 9
39 44 48 55 59 56 54 50 50 50 47 30 15 11 27 22 15 4 4 13 12 11 6 9 4 10 9 4 6 10 11 3 4 4 6 6 4 3 2 2 3 4 2 6 11 3 5
38 43 47 51 56 59 56 54 51 50 50 34 14 6 27 25 18 9 12 9 4 5 4 4 5 2 3 4 6 7 4 2 3 4 4 2 3 4 2 5 9 3 9 6 4 3 9
38 43 47 52 53 57 58 58 57 53 52 38 10 2 26 24 13 19 9 4 5 4 5 5 5 4 3 3 3 5 4 4 6 5 8 5 7 7 5 8 11 7 2 4 3 6 5
41 42 47 51 52 52 56 58 60 60 56 39 9 6 25 18 11 10 5 8 7 5 4 6 5 2 8 5 4 1 4 7 12 10 6 2 7 6 16 2 4 6 10 9 6 8 6
38 39 41 45 49 50 53 55 58 58 59 44 10 10 19 14 7 5 3 5 2 6 4 3 4 6 2 4 2 5 5 3 14 9 9 9 1 5 9 5 5 7 8 7 4 4 15
38 36 39 41 44 48 47 51 53 53 53 39 12 7 15 17 15 11 8 2 6 4 5 6 5 3 4 5 5 3 5 3 12 9 8 11 6 11 11 7 6 8 10 13 12 7 7
40 42 42 42 44 46 45 45 46 47 46 30 17 6 7 7 12 7 4 8 5 4 4 9 3 8 8 7 7 9 8 4 5 11 10 10 9 8 11 18 13 27 27 20 31 35 19
43 45 45 43 41 44 42 38 41 41 37 21 10 7 7 5 5 3 7 7 10 3 10 6 6 4 10 10 14 14 11 7 11 4 11 2 5 5 10 10 11 17 31 37 41 40 41
46 48 49 48 43 36 40 30 30 33 33 14 13 11 6 7 5 2 2 4 4 3 7 7 11 7 6 21 34 23 20 9 11 16 14 10 8 2 10 6 16 18 15 27 15 13 39
46 47 48 49 43 24 23 24 23 21 20 17 12 7 5 4 2 4 4 3 4 6 4 2 14 7 3 2 6 8 13 17 17 20 18 12 9 4 8 12 6 10 7 15 26 18 36
49 49 46 43 35 20 18 16 19 15 14 9 9 6 3 2 5 10 6 7 10 9 7 10 13 11 4 1 5 9 7 5 1 4 9 5 9 3 5 5 18 11 3 8 11 12 28
49 46 41 37 25 17 18 15 16 11 12 9 3 4 2 3 8 6 3 4 4 2 7 5 7 7 12 6 4 5 8 6 5 1 13 6 4 12 3 4 12 8 2 6 2 10 7
48 43 36 27 19 21 16 13 15 11 11 11 8 8 6 5 8 9 6 3 4 1 4 6 2 4 12 4 5 8 8 6 7 10 9 7 6 23 20 12 18 18 22 2 3 9 3
40 36 28 19 13 16 17 17 13 14 15 11 12 12 14 11 19 31 24 19 11 6 3 1 4 3 4 6 7 8 8 8 4 8 12 16 15 10 12 10 21 24 13 15 8 5 10
33 28 23 17 11 16 20 18 12 13 15 16 16 18 18 17 17 38 51 48 43 38 25 12 7 5 10 3 4 1 6 3 8 7 1 7 15 11 20 17 12 22 25 26 30 38 55
Wind_Direction_850mb
20 19 18 18 22 19 20 39 30 25 22 24 32 29 38 78 37 99 112 121 123 123 121 128 129 134 159 95 14 87 115 132 135 143 147 153 144 105 89 97 77 76 116 74 85 79 63
26 22 21 18 29 29 30 43 35 29 33 32 33 34 42 40 74 102 113 123 117 117 119 127 127 138 118 77 58 100 115 129 124 133 148 151 137 117 90 66 62 95 104 101 63 54 48
26 25 25 27 33 35 39 51 35 26 30 35 33 36 45 56 93 103 110 113 113 115 119 123 111 113 95 69 84 103 118 126 115 129 145 141 132 123 107 95 107 101 74 71 28 16 31
24 24 23 27 30 33 29 31 30 21 19 25 34 35 41 64 69 99 104 110 101 126 125 123 115 105 82 81 92 104 114 122 114 127 125 109 117 107 77 114 53 59 48 84 353 1 17
25 23 21 21 26 27 25 13 9 15 21 25 40 42 59 62 76 90 97 99 94 99 110 106 113 95 61 97 97 104 114 114 112 107 100 106 111 79 75 78 47 14 138 109 87 28 351
27 25 23 17 18 19 18 21 18 20 25 38 55 57 54 63 90 89 99 91 87 92 90 87 95 78 65 69 91 99 111 117 117 111 91 74 67 70 33 63 176 168 120 67 220 340 358
23 27 25 24 17 17 13 8 12 15 22 31 51 66 53 51 109 110 110 107 85 64 69 86 103 101 95 81 83 102 116 123 106 73 52 32 70 85 53 23 115 119 98 105 324 6 328
25 24 26 24 23 20 19 12 13 19 23 27 35 47 56 69 89 112 118 95 89 116 77 62 70 73 70 83 82 73 105 84 64 72 28 38 71 264 250 74 82 68 91 32 299 356 353
26 25 23 23 24 21 21 19 15 19 24 28 36 46 70 84 95 110 101 101 103 86 86 41 38 40 38 70 51 33 70 81 75 55 37 98 174 330 101 55 80 43 110 119 237 324 55
27 26 24 22 20 21 20 19 16 13 20 29 34 51 62 120 111 122 116 113 77 55 77 343 355 24 3 63 52 36 51 80 47 117 89 84 335 109 83 76 78 105 168 104 50 38 265
25 25 22 21 20 17 15 16 15 10 12 24 32 38 58 77 121 128 137 144 236 317 70 308 326 3 22 68 88 19 37 66 80 78 102 255 56 74 72 81 12 126 73 70 73 81 20
17 20 19 19 17 16 11 10 12 12 14 20 25 27 30 68 75 100 132 135 126 45 15 338 332 358 10 25 34 41 55 72 102 70 36 78 46 49 96 70 63 129 78 46 55 56 358
11 13 12 16 16 14 12 7 8 10 6 5 16 24 19 31 51 25 97 144 44 79 308 310 356 5 53 6 20 27 22 26 87 87 17 10 353 330 108 88 62 85 61 342 352 13 234
9 9 7 11 13 15 12 8 7 5 2 358 354 17 20 19 24 42 80 62 68 214 213 291 345 41 75 11 20 4 47 46 37 64 95 131 322 173 268 109 158 81 130 151 220 256 288
4 5 7 7 8 14 11 10 4 2 1 353 347 357 11 13 8 46 148 51 172 208 174 148 97 69 25 31 98 42 24 28 346 31 100 128 299 345 42 80 86 160 131 147 105 170 291
357 359 2 7 6 10 10 10 9 3 356 354 347 349 4 9 17 31 73 115 104 184 136 39 101 152 130 318 69 62 25 246 24 79 68 101 72 354 43 60 41 142 150 81 19 221 266
352 353 356 2 8 7 10 9 9 7 358 357 2 37 3 5 30 50 93 129 137 98 51 61 143 104 103 133 106 140 185 266 173 120 91 117 101 317 22 210 183 149 206 96 141 169 210
344 348 353 357 3 7 7 8 8 4 3 7 16 41 360 9 43 46 64 125 133 159 124 101 103 109 162 147 101 333 230 232 174 151 118 142 135 212 214 298 179 180 195 169 153 208 228
336 342 349 352 356 5 4 5 7 7 5 2 16 5 3 15 92 49 130 87 101 133 179 138 151 176 122 150 82 190 209 346 177 148 160 178 4 344 343 19 15 242 201 184 111 95 204
329 335 340 347 350 356 0 359 6 7 6 3 9 18 22 51 65 113 125 142 139 162 147 165 164 136 132 169 213 202 230 176 183 180 172 154 169 193 199 202 152 224 209 200 182 196 194
325 328 332 336 340 346 355 353 1 10 9 8 25 55 28 339 14 70 83 154 128 195 219 190 174 209 177 176 184 213 201 179 196 194 154 151 225 186 249 246 236 251 249 205 212 223 215
320 323 324 326 332 334 347 351 352 6 12 24 34 25 12 29 346 58 3 212 176 176 155 247 222 183 191 194 194 204 165 202 201 167 164 216 257 173 276 258 223 255 240 230 229 231 250
315 318 320 319 323 326 337 346 349 357 10 36 30 12 6 7 3 16 260 169 239 194 213 199 194 154 214 243 241 236 211 225 202 164 187 164 164 97 268 322 300 280 234 214 209 214 224
305 309 311 312 315 318 326 336 339 349 1 16 32 33 53 305 41 260 357 261 239 206 255 272 202 171 283 220 315 279 258 252 220 215 174 150 148 175 277 339 284 263 207 198 201 230 218
300 304 307 308 306 306 315 320 329 338 349 353 14 32 98 230 237 297 267 239 289 285 248 242 237 224 233 299 17 339 327 329 4 20 196 168 147 251 247 244 294 292 199 145 174 275 216
295 298 300 302 294 281 298 302 308 322 332 323 336 4 290 132 239 232 251 233 247 249 323 243 266 247 187 115 122 224 246 252 257 65 30 108 114 204 139 225 249 247 198 178 149 292 229
289 292 297 297 288 268 279 291 292 288 303 296 270 272 238 231 268 222 222 248 260 220 247 291 234 175 190 124 176 200 239 189 241 185 154 161 208 224 223 256 279 243 205 34 16 247 200
277 283 286 283 268 263 266 286 279 269 274 298 281 272 249 223 255 267 262 238 237 227 228 221 320 232 80 184 192 218 199 224 245 171 178 176 171 195 196 233 268 178 112 167 228 286 275
265 270 277 273 240 256 277 285 263 260 276 287 286 287 280 262 266 281 274 274 262 252 262 221 245 164 228 187 250 306 242 216 200 241 328 226 197 184 194 213 271 216 246 233 269 277 290